Regional Weather Roundup
Issued by NWS Cleveland, OH

Home | Current Version | Previous Version | Text Only | Print | Product List | Glossary On
Versions: 1 2 3 4 5 6 7 8 9 10 11 12 13 14 15 16 17 18 19 20 21 22 23 24 25 26 27 28 29 30 31 32 33 34 35 36 37 38 39 40 41 42 43 44 45 46 47 48 49 50
000
ASUS41 KCLE 241412
RWRCLE
OHIO REGIONAL WEATHER ROUNDUP
NATIONAL WEATHER SERVICE WILMINGTON, OH
1000 AM EDT TUE MAY 24 2016

NOTE: "FAIR" INDICATES FEW OR NO CLOUDS BELOW 12,000 FEET WITH NO
SIGNIFICANT WEATHER AND/OR OBSTRUCTIONS TO VISIBILITY.

OHZ001>008-015>018-024>027-034-035-043-044-241500-
   NORTHWEST OHIO

CITY           SKY/WX    TMP DP  RH WIND       PRES   REMARKS
DEFIANCE       FAIR      71  47  42 SW8       30.08S
FINDLAY        FAIR      73  48  41 SW9       30.08S
TOLEDO EXPRESS FAIR      71  46  40 W12       30.07S
TOLEDO EXEC    FAIR      70  48  45 W9        30.08S
LIMA           FAIR      71  51  49 SW12      30.10R
$$

OHZ009>014-019>023-028>033-038-089-241500-
   NORTHEAST OHIO

CITY           SKY/WX    TMP DP  RH WIND       PRES   REMARKS
CLE-HOPKINS    FAIR      73  51  46 W9        30.10S
CLE-LAKEFRONT  FAIR      70  52  52 W12       30.07R
CUY CO. ARPT   SUNNY     73  50  43 W9        30.09R
LORAIN-ELYRIA  FAIR      71  48  43 W10       30.09S
ASHTABULA      FAIR      70  47  43 W8        30.09S
AKRON-CANTON   FAIR      71  50  47 W9        30.10S
WOOSTER        FAIR      71  52  50 W9        30.11S
MANSFIELD      FAIR      71  50  47 W9        30.11S
YOUNGSTOWN     FAIR      69  51  52 W7        30.10R
$$

OHZ042-051>053-060>062-070>072-077>081-241500-
  SOUTHWEST OHIO

CITY           SKY/WX    TMP DP  RH WIND       PRES   REMARKS
CINC-COVINGTON PTSUNNY   70  53  54 S7        30.13R
CINC-LUNKEN    FAIR      67  58  72 CALM      30.12F
HAMILTON       FAIR      69  56  62 CALM      30.13S
DAYTON         FAIR      69  53  56 SW8       30.13R
WRIGHT-PAT AFB FAIR      69  56  64 SW6       30.12R
DAYTON GENERAL FAIR      69  52  54 SW7       30.12R
WILMINGTON     FAIR      70  54  56 SW10      30.13R
$$

OHZ036-037-039>041-045>050-054>059-063>069-073>076-082>088-241500-
  CENTRAL AND SOUTHEAST OHIO

CITY           SKY/WX    TMP DP  RH WIND       PRES   REMARKS
COLUMBUS       FAIR      68  53  58 CALM      30.12R
OSU AIRPORT    FAIR      71  53  52 W6        30.11S
BOLTON FIELD   SUNNY     70  55  60 W7        30.13R
RICKENBACK AFB FAIR      66  56  68 SW3       30.12S
NEWARK         FAIR      72  55  55 W7        30.12R
MARION         FAIR      71  51  49 W7        30.11S
LANCASTER      FAIR      71  53  52 VRB6      30.13R
ZANESVILLE     FAIR      71  53  52 W6        30.12S
NEW PHILLY     FAIR      71  54  54 VRB3      30.11S
$$



USA.gov is the U.S. government's official web portal to all federal, state and local government web resources and services.